contact:dominique.lefevre@mio.osupytheas.fr, maurice.libes@osupytheas.fr, didier.mallarino@osupytheas.fr
Project:EMSO http://www.emso-fr.org/EMSO-France
Depth: 2436.0 m
Title:EMSO Ligure Ouest : Data MII capteur AQUADOPP
Date,Latitude,Longitude,X_East,Y_North,Z_Up,Amplitude_X,Amplitude_Y,Amplitude_Z,Batterie,SoundSpeed,Heading,Pitch,Roll,Pressure,TIS,Speed,Direction
, degrees North, degrees East, m.s-1, m.s-1,m.s-1, 1, 1, 1, Volt, m.s-1, degree, degree, degree, dbar, degree_C, m.s-1, degree
2023-11-16T00:04:03,42.805,6.029,-0.018,0.021,-0.033,102.0,102.0,102.0,13.3,1505.2,352.3,-0.8,1.8,2471.515,13.29,0.027,319.4
2023-11-16T00:07:03,42.805,6.029,0.005,0.021,-0.01,103.0,103.0,104.0,13.4,1505.2,345.9,-0.8,1.7,2471.542,13.29,0.021,13.4
2023-11-16T00:10:03,42.805,6.029,-0.008,0.037,0.014,103.0,103.0,101.0,13.4,1505.2,342.7,-0.8,1.8,2471.485,13.29,0.037,347.8
2023-11-16T00:13:03,42.805,6.029,-0.012,0.023,-0.042,106.0,102.0,101.0,13.3,1505.2,348.5,-0.8,1.8,2471.464,13.29,0.025,332.4
2023-11-16T00:16:03,42.805,6.029,-0.023,0.016,-0.075,103.0,102.0,101.0,13.4,1505.2,333.8,-0.8,1.8,2471.495,13.29,0.028,304.8
2023-11-16T00:19:03,42.805,6.029,-0.004,0.026,-0.033,101.0,103.0,102.0,13.4,1505.2,355.0,-0.8,1.8,2471.457,13.29,0.026,351.3
2023-11-16T00:22:03,42.805,6.029,-0.007,0.0,-0.033,103.0,103.0,102.0,13.3,1505.2,347.3,-0.8,1.8,2471.436,13.29,0.007,270.0
2023-11-16T00:25:03,42.805,6.029,0.007,0.047,0.0,102.0,104.0,102.0,13.3,1505.2,1.7,-0.7,1.8,2471.445,13.29,0.047,8.5
2023-11-16T00:28:03,42.805,6.029,0.02,0.001,-0.038,102.0,102.0,103.0,13.4,1505.2,353.3,-0.8,1.8,2471.44,13.29,0.02,87.1
2023-11-16T00:31:03,42.805,6.029,-0.01,0.019,-0.033,103.0,103.0,101.0,13.4,1505.2,345.5,-0.7,1.8,2471.457,13.29,0.021,332.2
2023-11-16T00:34:03,42.805,6.029,-0.017,0.018,-0.022,103.0,102.0,102.0,13.4,1505.2,337.0,-0.7,1.8,2471.444,13.29,0.024,316.6
2023-11-16T00:37:03,42.805,6.029,0.011,0.027,-0.001,102.0,102.0,102.0,13.3,1505.2,358.1,-0.8,1.8,2471.447,13.29,0.029,22.2
2023-11-16T00:40:03,42.805,6.029,0.005,0.032,-0.006,103.0,103.0,102.0,13.4,1505.2,348.2,-0.7,1.8,2471.481,13.29,0.032,8.9
2023-11-16T00:43:03,42.805,6.029,0.003,0.007,-0.045,103.0,101.0,102.0,13.3,1505.2,339.0,-0.7,1.8,2471.445,13.29,0.007,23.2
2023-11-16T00:46:03,42.805,6.029,0.005,0.006,-0.076,104.0,103.0,102.0,13.4,1505.2,355.9,-0.8,1.8,2471.434,13.29,0.007,39.8
2023-11-16T00:49:03,42.805,6.029,0.008,0.029,0.007,104.0,103.0,101.0,13.3,1505.2,353.7,-0.7,1.8,2471.473,13.29,0.03,15.4
2023-11-16T00:52:03,42.805,6.029,-0.017,0.025,-0.047,103.0,103.0,101.0,13.4,1505.2,340.4,-0.8,1.8,2471.425,13.29,0.03,325.8
2023-11-16T00:55:03,42.805,6.029,-0.005,0.039,-0.053,105.0,101.0,101.0,13.4,1505.2,337.7,-0.8,1.8,2471.438,13.29,0.039,352.7
2023-11-16T00:58:03,42.805,6.029,-0.016,0.026,-0.012,101.0,103.0,101.0,13.4,1505.2,355.0,-0.8,1.8,2471.429,13.29,0.03,328.4
2023-11-16T01:04:03,42.805,6.029,-0.012,0.007,-0.051,103.0,103.0,103.0,13.4,1505.2,356.5,-0.7,1.8,2471.45,13.29,0.013,300.3
2023-11-16T01:07:03,42.805,6.029,0.0,0.014,-0.042,102.0,102.0,102.0,13.3,1505.2,346.1,-0.8,1.8,2471.503,13.29,0.014,0.0
2023-11-16T01:10:03,42.805,6.029,0.018,-0.002,-0.042,102.0,102.0,102.0,13.3,1505.2,338.3,-0.8,1.8,2471.432,13.29,0.018,96.3
2023-11-16T01:13:03,42.805,6.029,0.025,0.019,-0.005,103.0,101.0,101.0,13.4,1505.2,359.0,-0.7,1.8,2471.425,13.29,0.031,52.8
2023-11-16T01:16:03,42.805,6.029,-0.007,0.008,-0.013,103.0,102.0,102.0,13.3,1505.2,342.3,-0.8,1.8,2471.491,13.29,0.01,318.8
2023-11-16T01:19:03,42.805,6.029,0.008,-0.011,-0.006,103.0,104.0,102.0,13.4,1505.2,338.2,-0.8,1.8,2471.437,13.29,0.013,144.0
2023-11-16T01:22:03,42.805,6.029,0.006,0.028,-0.028,101.0,103.0,101.0,13.3,1505.2,339.5,-0.7,1.8,2471.446,13.29,0.028,12.1
2023-11-16T01:25:03,42.805,6.029,0.009,0.015,-0.023,102.0,102.0,101.0,13.4,1505.2,359.0,-0.8,1.8,2471.461,13.29,0.017,31.0
2023-11-16T01:28:03,42.805,6.029,0.006,0.03,-0.014,102.0,103.0,102.0,13.4,1505.2,342.0,-0.8,1.8,2471.447,13.29,0.03,11.3
2023-11-16T01:31:03,42.805,6.029,-0.003,0.026,-0.043,103.0,102.0,102.0,13.4,1505.2,346.3,-0.8,1.8,2471.444,13.29,0.026,353.4
2023-11-16T01:34:03,42.805,6.029,0.016,0.04,-0.006,103.0,102.0,102.0,13.4,1505.2,345.9,-0.8,1.8,2471.442,13.29,0.043,21.8
2023-11-16T01:37:03,42.805,6.029,0.0,0.016,-0.014,101.0,103.0,102.0,13.4,1505.2,351.3,-0.8,1.8,2471.459,13.29,0.016,0.0
2023-11-16T01:40:03,42.805,6.029,-0.018,0.022,-0.033,103.0,102.0,102.0,13.3,1505.2,335.2,-0.8,1.8,2471.446,13.29,0.028,320.7
2023-11-16T01:43:03,42.805,6.029,0.012,0.004,-0.041,103.0,103.0,102.0,13.3,1505.2,356.9,-0.8,1.8,2471.423,13.29,0.012,71.6
2023-11-16T01:46:03,42.805,6.029,0.018,0.015,0.009,104.0,102.0,102.0,13.3,1505.2,342.1,-0.8,1.8,2471.437,13.29,0.023,50.2
2023-11-16T01:49:03,42.805,6.029,0.003,0.003,-0.054,104.0,102.0,101.0,13.3,1505.2,333.8,-0.8,1.8,2471.442,13.29,0.004,45.0
2023-11-16T01:52:03,42.805,6.029,0.017,0.028,-0.029,105.0,103.0,101.0,13.4,1505.2,344.2,-0.8,1.8,2471.474,13.29,0.032,31.3
2023-11-16T01:55:03,42.805,6.029,0.006,0.021,-0.032,102.0,102.0,102.0,13.3,1505.2,343.2,-0.8,1.8,2471.411,13.29,0.021,15.9
2023-11-16T01:58:03,42.805,6.029,-0.008,0.021,-0.064,102.0,102.0,102.0,13.3,1505.2,350.2,-0.7,1.8,2471.445,13.29,0.022,339.1
2023-11-16T02:04:03,42.805,6.029,0.01,0.012,-0.025,102.0,101.0,102.0,13.4,1505.2,341.0,-0.8,1.8,2471.471,13.29,0.015,39.8
2023-11-16T02:07:03,42.805,6.029,0.013,0.015,-0.031,101.0,104.0,102.0,13.4,1505.2,357.1,-0.8,1.8,2471.423,13.29,0.019,40.9
2023-11-16T02:10:03,42.805,6.029,0.034,0.007,-0.01,102.0,102.0,101.0,13.3,1505.2,349.4,-0.8,1.8,2471.464,13.29,0.034,78.4
2023-11-16T02:13:03,42.805,6.029,-0.014,0.033,-0.04,103.0,101.0,102.0,13.3,1505.2,347.5,-0.8,1.8,2471.441,13.29,0.035,337.0
2023-11-16T02:16:03,42.805,6.029,0.029,0.011,-0.038,102.0,100.0,102.0,13.3,1505.2,345.2,-0.8,1.8,2471.424,13.29,0.031,69.2
2023-11-16T02:19:03,42.805,6.029,0.009,0.01,-0.013,102.0,101.0,101.0,13.4,1505.2,350.2,-0.7,1.8,2471.454,13.29,0.013,42.0
2023-11-16T02:22:03,42.805,6.029,0.0,0.023,-0.021,102.0,103.0,101.0,13.3,1505.2,340.4,-0.8,1.8,2471.473,13.29,0.023,0.0
2023-11-16T02:25:03,42.805,6.029,0.007,0.017,-0.036,101.0,104.0,102.0,13.4,1505.2,348.5,-0.8,1.8,2471.432,13.3,0.018,22.4
2023-11-16T02:28:03,42.805,6.029,0.03,0.0,-0.034,103.0,101.0,103.0,13.3,1505.2,346.1,-0.8,1.8,2471.421,13.3,0.03,90.0
2023-11-16T02:31:03,42.805,6.029,0.012,0.024,-0.017,103.0,103.0,101.0,13.4,1505.2,359.0,-0.8,1.8,2471.452,13.3,0.026,26.6
2023-11-16T02:34:03,42.805,6.029,0.009,0.008,-0.006,106.0,101.0,102.0,13.4,1505.2,349.0,-0.7,1.8,2471.414,13.3,0.012,48.4
2023-11-16T02:37:03,42.805,6.029,0.035,0.002,-0.005,103.0,102.0,102.0,13.4,1505.2,340.8,-0.7,1.8,2471.423,13.3,0.035,86.7
2023-11-16T02:40:03,42.805,6.029,-0.013,0.018,-0.021,103.0,103.0,101.0,13.4,1505.2,342.3,-0.8,1.8,2471.448,13.3,0.022,324.2
2023-11-16T02:43:03,42.805,6.029,0.018,0.015,-0.035,102.0,102.0,101.0,13.4,1505.2,333.8,-0.8,1.8,2471.423,13.3,0.023,50.2
2023-11-16T02:46:03,42.805,6.029,0.017,0.017,-0.011,102.0,104.0,101.0,13.4,1505.2,0.9,-0.8,1.8,2471.399,13.3,0.024,45.0
2023-11-16T02:49:03,42.805,6.029,-0.012,0.033,-0.013,104.0,103.0,102.0,13.3,1505.2,346.2,-0.7,1.8,2471.455,13.3,0.035,340.0
2023-11-16T02:52:03,42.805,6.029,0.037,0.0,-0.013,103.0,102.0,101.0,13.4,1505.2,334.8,-0.8,1.8,2471.404,13.3,0.037,90.0
2023-11-16T02:55:03,42.805,6.029,0.004,-0.001,-0.024,102.0,103.0,102.0,13.4,1505.2,335.2,-0.8,1.8,2471.436,13.29,0.004,104.0
2023-11-16T02:58:03,42.805,6.029,-0.008,0.016,-0.032,104.0,103.0,101.0,13.4,1505.2,339.6,-0.8,1.8,2471.41,13.29,0.017,333.4
2023-11-16T03:04:03,42.805,6.029,-0.008,0.024,-0.038,103.0,102.0,102.0,13.4,1505.2,351.5,-0.8,1.8,2471.481,13.29,0.025,341.6
2023-11-16T03:07:03,42.805,6.029,0.02,0.015,-0.031,101.0,103.0,101.0,13.3,1505.2,342.3,-0.8,1.8,2471.474,13.29,0.025,53.1
2023-11-16T03:10:03,42.805,6.029,-0.013,0.02,-0.039,101.0,103.0,101.0,13.4,1505.2,338.3,-0.7,1.8,2471.427,13.29,0.023,327.0
2023-11-16T03:13:03,42.805,6.029,0.009,0.018,-0.03,102.0,104.0,102.0,13.4,1505.2,353.1,-0.8,1.8,2471.43,13.29,0.02,26.6
2023-11-16T03:16:03,42.805,6.029,0.013,0.036,0.009,102.0,103.0,103.0,13.3,1505.2,340.0,-0.8,1.8,2471.424,13.29,0.038,19.9
2023-11-16T03:19:03,42.805,6.029,0.013,0.033,-0.016,103.0,104.0,101.0,13.4,1505.2,352.2,-0.8,1.8,2471.414,13.29,0.035,21.5
2023-11-16T03:22:03,42.805,6.029,0.011,0.026,-0.021,104.0,102.0,102.0,13.3,1505.2,341.5,-0.8,1.9,2471.419,13.29,0.028,22.9
2023-11-16T03:25:03,42.805,6.029,0.01,0.028,-0.025,104.0,102.0,102.0,13.3,1505.2,342.8,-0.8,1.8,2471.429,13.29,0.029,19.6
2023-11-16T03:28:03,42.805,6.029,0.021,0.006,-0.02,102.0,102.0,102.0,13.4,1505.2,334.1,-0.7,1.8,2471.425,13.29,0.021,74.1
2023-11-16T03:31:03,42.805,6.029,-0.003,0.008,-0.056,103.0,102.0,102.0,13.4,1505.2,345.5,-0.8,1.8,2471.424,13.29,0.008,339.4
2023-11-16T03:34:03,42.805,6.029,-0.004,0.025,-0.017,103.0,101.0,102.0,13.3,1505.2,334.8,-0.8,1.8,2471.425,13.29,0.025,350.9
2023-11-16T03:37:03,42.805,6.029,0.017,0.002,-0.037,103.0,102.0,103.0,13.3,1505.2,0.9,-0.7,1.8,2471.416,13.29,0.017,83.3
2023-11-16T03:40:03,42.805,6.029,0.004,0.019,-0.016,102.0,100.0,102.0,13.3,1505.2,345.9,-0.8,1.8,2471.445,13.29,0.019,11.9
2023-11-16T03:43:03,42.805,6.029,0.013,0.015,-0.008,104.0,103.0,101.0,13.4,1505.2,350.2,-0.8,1.8,2471.422,13.29,0.019,40.9
2023-11-16T03:46:03,42.805,6.029,-0.011,0.0,-0.048,102.0,102.0,102.0,13.4,1505.2,339.2,-0.8,1.8,2471.416,13.29,0.011,270.0
2023-11-16T03:49:03,42.805,6.029,0.005,0.03,-0.022,101.0,104.0,102.0,13.3,1505.2,347.1,-0.8,1.8,2471.413,13.29,0.03,9.5
2023-11-16T03:52:03,42.805,6.029,0.004,0.022,-0.029,103.0,102.0,102.0,13.4,1505.2,339.3,-0.7,1.8,2471.409,13.29,0.022,10.3
2023-11-16T03:55:03,42.805,6.029,-0.014,0.023,-0.042,102.0,102.0,102.0,13.4,1505.2,355.2,-0.8,1.8,2471.43,13.29,0.026,328.7
2023-11-16T03:58:03,42.805,6.029,0.008,0.031,-0.043,102.0,104.0,101.0,13.3,1505.2,336.3,-0.7,1.8,2471.417,13.29,0.032,14.5
2023-11-16T04:04:03,42.805,6.029,-0.003,0.013,-0.047,103.0,103.0,101.0,13.4,1505.2,350.5,-0.8,1.8,2471.442,13.29,0.013,347.0
2023-11-16T04:07:03,42.805,6.029,0.021,0.024,-0.007,102.0,102.0,102.0,13.4,1505.2,352.7,-0.8,1.8,2471.423,13.29,0.031,41.2
2023-11-16T04:10:03,42.805,6.029,-0.002,0.02,-0.033,103.0,101.0,102.0,13.4,1505.2,355.4,-0.8,1.8,2471.476,13.29,0.02,354.3
2023-11-16T04:13:03,42.805,6.029,0.001,0.028,-0.038,103.0,102.0,102.0,13.4,1505.2,335.2,-0.8,1.8,2471.465,13.29,0.028,2.0
2023-11-16T04:16:03,42.805,6.029,0.022,0.029,-0.002,104.0,102.0,102.0,13.4,1505.2,353.5,-0.8,1.8,2471.425,13.29,0.036,37.2
2023-11-16T04:19:03,42.805,6.029,0.011,0.001,-0.036,103.0,102.0,102.0,13.3,1505.2,345.1,-0.8,1.8,2471.476,13.29,0.011,84.8
2023-11-16T04:22:03,42.805,6.029,0.021,0.014,0.007,102.0,102.0,102.0,13.4,1505.2,348.2,-0.7,1.8,2471.467,13.29,0.025,56.3
2023-11-16T04:25:03,42.805,6.029,0.014,0.019,-0.032,103.0,103.0,102.0,13.4,1505.2,358.1,-0.8,1.8,2471.47,13.29,0.023,36.4
2023-11-16T04:28:03,42.805,6.029,0.009,0.038,-0.012,101.0,103.0,101.0,13.4,1505.2,338.0,-0.8,1.8,2471.489,13.29,0.039,13.3
2023-11-16T04:31:03,42.805,6.029,0.01,0.035,-0.02,103.0,101.0,101.0,13.4,1505.2,345.5,-0.8,1.8,2471.471,13.29,0.036,15.9
2023-11-16T04:34:03,42.805,6.029,-0.022,0.023,-0.033,102.0,103.0,102.0,13.4,1505.2,335.6,-0.7,1.8,2471.438,13.29,0.031,316.3
2023-11-16T04:37:03,42.805,6.029,-0.007,0.015,-0.071,102.0,102.0,102.0,13.4,1505.2,345.9,-0.8,1.8,2471.46,13.29,0.016,335.0
2023-11-16T04:40:03,42.805,6.029,0.019,0.023,-0.004,103.0,102.0,103.0,13.3,1505.2,338.7,-0.7,1.8,2471.455,13.29,0.029,39.6
2023-11-16T04:43:03,42.805,6.029,-0.004,0.007,-0.058,102.0,101.0,102.0,13.3,1505.2,340.1,-0.7,1.8,2471.507,13.29,0.008,330.3
2023-11-16T04:46:03,42.805,6.029,0.001,0.032,-0.016,102.0,102.0,102.0,13.4,1505.2,334.9,-0.8,1.8,2471.45,13.29,0.032,1.8
2023-11-16T04:49:03,42.805,6.029,0.02,0.014,0.001,102.0,101.0,102.0,13.4,1505.2,340.4,-0.7,1.8,2471.462,13.29,0.024,55.0
2023-11-16T04:52:03,42.805,6.029,0.031,-0.001,-0.021,101.0,101.0,102.0,13.4,1505.2,343.5,-0.8,1.8,2471.49,13.29,0.031,91.8
2023-11-16T04:55:03,42.805,6.029,-0.007,0.028,-0.037,103.0,103.0,101.0,13.4,1505.2,342.8,-0.8,1.8,2471.483,13.29,0.028,346.0
2023-11-16T04:58:03,42.805,6.029,0.019,0.033,-0.011,102.0,102.0,102.0,13.3,1505.2,348.1,-0.8,1.8,2471.475,13.29,0.038,29.9
2023-11-16T05:04:03,42.805,6.029,0.028,-0.012,-0.001,102.0,102.0,102.0,13.4,1505.2,348.2,-0.8,1.8,2471.546,13.29,0.03,113.2
2023-11-16T05:07:03,42.805,6.029,0.004,0.042,-0.007,102.0,103.0,102.0,13.4,1505.2,340.0,-0.8,1.8,2471.541,13.29,0.042,5.4
2023-11-16T05:10:03,42.805,6.029,0.024,0.0,-0.016,103.0,103.0,102.0,13.4,1505.2,346.4,-0.8,1.8,2471.546,13.29,0.024,90.0
2023-11-16T05:13:03,42.805,6.029,0.009,0.039,0.006,102.0,102.0,102.0,13.4,1505.2,336.5,-0.8,1.8,2471.506,13.29,0.04,13.0
2023-11-16T05:16:03,42.805,6.029,0.017,0.011,-0.022,102.0,101.0,102.0,13.4,1505.2,338.8,-0.8,1.8,2471.499,13.29,0.02,57.1
2023-11-16T05:19:03,42.805,6.029,0.013,0.034,0.007,101.0,101.0,102.0,13.4,1505.2,348.1,-0.8,1.8,2471.475,13.29,0.036,20.9
2023-11-16T05:22:03,42.805,6.029,0.033,0.02,-0.003,102.0,103.0,101.0,13.4,1505.2,350.2,-0.8,1.8,2471.497,13.29,0.038,58.8
2023-11-16T05:25:03,42.805,6.029,-0.001,0.018,-0.043,99.0,104.0,102.0,13.3,1505.2,337.8,-0.7,1.8,2471.458,13.29,0.018,356.8
2023-11-16T05:28:03,42.805,6.029,0.032,0.002,-0.002,101.0,102.0,101.0,13.4,1505.2,350.5,-0.8,1.8,2471.496,13.29,0.032,86.4
2023-11-16T05:31:03,42.805,6.029,0.014,0.038,0.015,103.0,103.0,101.0,13.4,1505.2,337.0,-0.8,1.8,2471.504,13.29,0.04,20.2
2023-11-16T05:34:03,42.805,6.029,0.013,0.006,-0.03,102.0,102.0,101.0,13.4,1505.2,349.0,-0.8,1.9,2471.519,13.29,0.014,65.2
2023-11-16T05:37:03,42.805,6.029,-0.001,0.015,-0.006,102.0,102.0,102.0,13.4,1505.2,341.5,-0.8,1.8,2471.485,13.29,0.015,356.2
2023-11-16T05:40:03,42.805,6.029,0.007,0.034,-0.035,103.0,103.0,102.0,13.4,1505.2,340.4,-0.7,1.8,2471.504,13.29,0.034,11.6
2023-11-16T05:43:03,42.805,6.029,0.021,0.032,0.008,101.0,102.0,102.0,13.4,1505.2,339.5,-0.8,1.8,2471.561,13.29,0.038,33.3
2023-11-16T05:46:03,42.805,6.029,0.017,0.035,-0.021,101.0,102.0,102.0,13.3,1505.2,342.7,-0.7,1.8,2471.496,13.3,0.038,25.9
2023-11-16T05:49:03,42.805,6.029,0.016,0.006,-0.021,103.0,103.0,101.0,13.3,1505.2,337.3,-0.8,1.8,2471.503,13.3,0.017,69.4
2023-11-16T05:52:03,42.805,6.029,0.02,0.011,-0.01,103.0,101.0,102.0,13.4,1505.2,337.2,-0.8,1.8,2471.493,13.3,0.022,61.2
2023-11-16T05:55:03,42.805,6.029,-0.003,0.009,-0.004,104.0,103.0,103.0,13.4,1505.2,344.6,-0.8,1.8,2471.508,13.3,0.009,341.6
2023-11-16T05:58:03,42.805,6.029,0.017,0.023,0.01,103.0,103.0,101.0,13.4,1505.2,347.3,-0.8,1.8,2471.552,13.3,0.028,36.5
2023-11-16T06:04:03,42.805,6.029,0.002,-0.002,-0.044,102.0,104.0,104.0,13.4,1505.2,352.1,-0.7,1.8,2471.565,13.29,0.002,135.0
2023-11-16T06:07:03,42.805,6.029,0.0,0.035,-0.031,104.0,103.0,102.0,13.4,1505.2,338.0,-0.8,1.9,2471.54,13.3,0.035,0.0
2023-11-16T06:10:03,42.805,6.029,0.019,0.023,-0.014,104.0,104.0,101.0,13.3,1505.2,356.1,-0.7,1.8,2471.614,13.3,0.029,39.6
2023-11-16T06:13:03,42.805,6.029,0.013,0.002,-0.013,102.0,103.0,101.0,13.4,1505.2,345.9,-0.8,1.8,2471.573,13.3,0.013,81.3
2023-11-16T06:16:03,42.805,6.029,0.021,0.032,-0.02,103.0,103.0,103.0,13.4,1505.2,351.1,-0.8,1.8,2471.586,13.3,0.038,33.3
2023-11-16T06:19:03,42.805,6.029,0.008,0.005,-0.01,101.0,103.0,102.0,13.4,1505.2,349.3,-0.8,1.8,2471.578,13.3,0.009,58.0
2023-11-16T06:22:03,42.805,6.029,0.034,0.002,-0.018,101.0,105.0,102.0,13.4,1505.2,345.0,-0.8,1.8,2471.574,13.3,0.034,86.6
2023-11-16T06:25:03,42.805,6.029,0.006,0.009,-0.03,101.0,104.0,101.0,13.4,1505.2,353.1,-0.8,1.8,2471.611,13.3,0.01,33.7
2023-11-16T06:28:03,42.805,6.029,0.022,0.013,-0.002,102.0,104.0,102.0,13.3,1505.2,353.1,-0.8,1.8,2471.58,13.3,0.025,59.4
2023-11-16T06:31:03,42.805,6.029,0.012,0.009,-0.044,104.0,103.0,101.0,13.4,1505.2,356.1,-0.8,1.8,2471.6,13.3,0.015,53.1
2023-11-16T06:34:03,42.805,6.029,0.014,0.015,-0.043,104.0,104.0,100.0,13.4,1505.2,336.4,-0.8,1.8,2471.571,13.3,0.02,43.0
2023-11-16T06:37:03,42.805,6.029,0.021,0.011,-0.015,103.0,103.0,102.0,13.4,1505.2,342.3,-0.8,1.8,2471.642,13.3,0.023,62.4
2023-11-16T06:40:03,42.805,6.029,0.0,0.012,-0.037,103.0,102.0,103.0,13.3,1505.2,344.2,-0.8,1.8,2471.594,13.3,0.012,0.0
2023-11-16T06:43:03,42.805,6.029,-0.001,0.018,-0.022,103.0,103.0,102.0,13.4,1505.2,339.9,-0.7,1.8,2471.585,13.3,0.018,356.8
2023-11-16T06:46:03,42.805,6.029,0.001,0.012,-0.025,102.0,105.0,102.0,13.3,1505.2,0.0,-0.8,1.8,2471.61,13.3,0.012,4.8
2023-11-16T06:49:03,42.805,6.029,0.024,-0.011,-0.011,102.0,102.0,102.0,13.4,1505.2,351.1,-0.8,1.8,2471.584,13.3,0.026,114.6
2023-11-16T06:52:03,42.805,6.029,0.007,-0.005,-0.018,101.0,103.0,102.0,13.4,1505.2,358.1,-0.8,1.8,2471.57,13.3,0.008,125.5
2023-11-16T06:55:03,42.805,6.029,0.004,0.013,-0.025,102.0,103.0,101.0,13.3,1505.2,337.0,-0.8,1.8,2471.6,13.3,0.013,17.1
2023-11-16T06:58:03,42.805,6.029,0.0,0.017,-0.032,102.0,103.0,102.0,13.4,1505.2,1.8,-0.7,1.8,2471.6,13.3,0.017,0.0
2023-11-16T07:04:03,42.805,6.029,0.036,0.018,-0.031,102.0,103.0,103.0,13.3,1505.2,351.5,-0.8,1.8,2471.639,13.29,0.04,63.4
2023-11-16T07:07:03,42.805,6.029,0.011,-0.001,-0.034,101.0,103.0,101.0,13.4,1505.2,355.5,-0.8,1.8,2471.64,13.3,0.011,95.2
2023-11-16T07:10:03,42.805,6.029,0.024,-0.003,-0.012,102.0,104.0,103.0,13.4,1505.2,350.2,-0.8,1.8,2471.682,13.3,0.024,97.1
2023-11-16T07:13:03,42.805,6.029,0.034,0.025,-0.002,103.0,100.0,101.0,13.4,1505.2,342.8,-0.7,1.8,2471.646,13.3,0.042,53.7
2023-11-16T07:16:03,42.805,6.029,0.015,0.014,-0.023,104.0,103.0,101.0,13.4,1505.2,356.7,-0.8,1.8,2471.632,13.3,0.02,47.0
2023-11-16T07:19:03,42.805,6.029,0.031,0.003,-0.004,101.0,102.0,102.0,13.4,1505.2,344.2,-0.8,1.8,2471.648,13.3,0.031,84.5
2023-11-16T07:22:03,42.805,6.029,0.023,0.004,-0.007,102.0,103.0,102.0,13.3,1505.2,1.8,-0.7,1.8,2471.605,13.3,0.023,80.1
2023-11-16T07:25:03,42.805,6.029,0.01,0.006,-0.013,102.0,105.0,104.0,13.3,1505.2,352.4,-0.7,1.8,2471.613,13.3,0.011,59.0
2023-11-16T07:28:03,42.805,6.029,0.017,0.015,-0.038,102.0,103.0,101.0,13.4,1505.2,357.1,-0.8,1.8,2471.65,13.3,0.022,48.6
2023-11-16T07:31:03,42.805,6.029,0.012,-0.008,-0.009,103.0,103.0,102.0,13.4,1505.2,333.8,-0.8,1.8,2471.643,13.3,0.014,123.7
2023-11-16T07:34:03,42.805,6.029,0.029,0.01,-0.027,102.0,104.0,102.0,13.4,1505.2,343.0,-0.8,1.9,2471.634,13.3,0.03,71.0
2023-11-16T07:37:03,42.805,6.029,-0.002,0.012,-0.038,104.0,102.0,103.0,13.4,1505.2,335.7,-0.7,1.8,2471.648,13.3,0.012,350.5
2023-11-16T07:40:03,42.805,6.029,0.008,-0.002,-0.009,102.0,103.0,103.0,13.4,1505.2,353.2,-0.8,1.8,2471.626,13.3,0.008,104.0
2023-11-16T07:43:03,42.805,6.029,0.016,0.009,-0.038,102.0,104.0,102.0,13.4,1505.2,342.4,-0.8,1.8,2471.659,13.3,0.018,60.6
2023-11-16T07:46:03,42.805,6.029,0.009,0.026,-0.023,104.0,103.0,102.0,13.4,1505.2,354.2,-0.8,1.8,2471.614,13.3,0.027,19.1
2023-11-16T07:49:03,42.805,6.029,0.011,0.021,-0.012,104.0,103.0,102.0,13.4,1505.2,341.5,-0.7,1.8,2471.633,13.3,0.023,27.6
2023-11-16T07:52:03,42.805,6.029,-0.014,0.018,0.002,102.0,102.0,102.0,13.4,1505.2,349.2,-0.8,1.9,2471.612,13.3,0.022,322.1
2023-11-16T07:55:03,42.805,6.029,0.018,0.014,-0.006,102.0,103.0,101.0,13.4,1505.2,336.0,-0.8,1.8,2471.621,13.3,0.022,52.1
2023-11-16T07:58:03,42.805,6.029,0.022,0.021,-0.023,103.0,103.0,101.0,13.4,1505.2,351.4,-0.8,1.8,2471.623,13.3,0.03,46.3
2023-11-16T08:04:03,42.805,6.029,0.002,0.024,-0.041,103.0,103.0,101.0,13.3,1505.2,341.8,-0.7,1.8,2471.666,13.29,0.024,4.8
2023-11-16T08:07:03,42.805,6.029,-0.011,0.013,-0.019,104.0,104.0,101.0,13.4,1505.2,341.8,-0.8,1.8,2471.71,13.29,0.017,319.8
2023-11-16T08:10:03,42.805,6.029,0.002,0.011,-0.008,102.0,105.0,102.0,13.4,1505.2,342.1,-0.8,1.8,2471.672,13.3,0.011,10.3
2023-11-16T08:13:03,42.805,6.029,0.018,0.004,-0.022,102.0,103.0,101.0,13.4,1505.2,357.5,-0.7,1.8,2471.707,13.29,0.018,77.5
2023-11-16T08:16:03,42.805,6.029,0.015,0.015,0.015,104.0,100.0,101.0,13.4,1505.2,352.5,-0.7,1.8,2471.64,13.29,0.021,45.0
2023-11-16T08:19:03,42.805,6.029,0.03,0.026,-0.026,103.0,103.0,101.0,13.3,1505.2,356.6,-0.8,1.8,2471.68,13.29,0.039,49.1
2023-11-16T08:22:03,42.805,6.029,0.023,0.016,-0.047,102.0,103.0,100.0,13.3,1505.2,350.0,-0.8,1.8,2471.678,13.29,0.028,55.2
2023-11-16T08:25:03,42.805,6.029,0.014,0.004,-0.024,103.0,103.0,101.0,13.4,1505.2,355.7,-0.7,1.8,2471.679,13.29,0.014,74.1
2023-11-16T08:28:03,42.805,6.029,0.001,0.001,-0.035,102.0,103.0,103.0,13.4,1505.2,347.1,-0.8,1.8,2471.666,13.29,0.001,45.0
2023-11-16T08:31:03,42.805,6.029,0.015,-0.005,-0.021,102.0,104.0,102.0,13.4,1505.2,0.8,-0.8,1.8,2471.673,13.29,0.015,108.4
2023-11-16T08:34:03,42.805,6.029,0.008,0.003,-0.03,102.0,103.0,101.0,13.3,1505.2,345.2,-0.8,1.8,2471.645,13.29,0.008,69.4
2023-11-16T08:37:03,42.805,6.029,0.013,0.018,-0.028,102.0,104.0,100.0,13.4,1505.2,358.0,-0.7,1.9,2471.651,13.29,0.022,35.8
2023-11-16T08:40:03,42.805,6.029,0.018,0.026,-0.014,103.0,102.0,101.0,13.4,1505.2,350.0,-0.8,1.8,2471.681,13.3,0.031,34.7
2023-11-16T08:43:03,42.805,6.029,0.003,0.026,-0.021,102.0,102.0,103.0,13.3,1505.2,359.0,-0.8,1.8,2471.676,13.3,0.026,6.6
2023-11-16T08:46:03,42.805,6.029,0.008,0.028,-0.007,104.0,104.0,102.0,13.4,1505.2,351.7,-0.8,1.8,2471.685,13.3,0.029,15.9
2023-11-16T08:49:03,42.805,6.029,0.018,0.0,-0.037,102.0,104.0,102.0,13.4,1505.2,343.0,-0.8,1.8,2471.693,13.3,0.018,90.0
2023-11-16T08:52:03,42.805,6.029,0.018,-0.004,-0.026,102.0,102.0,101.0,13.3,1505.2,346.6,-0.8,1.8,2471.695,13.3,0.018,102.5
2023-11-16T08:55:03,42.805,6.029,0.02,0.01,-0.022,103.0,103.0,101.0,13.3,1505.2,359.0,-0.7,1.8,2471.696,13.3,0.022,63.4
2023-11-16T08:58:03,42.805,6.029,0.002,0.0,-0.047,103.0,102.0,102.0,13.3,1505.2,347.5,-0.8,1.8,2471.674,13.3,0.002,90.0
2023-11-16T09:04:03,42.805,6.029,0.009,-0.001,-0.038,102.0,104.0,101.0,13.3,1505.2,342.1,-0.8,1.8,2471.741,13.29,0.009,96.3
2023-11-16T09:07:03,42.805,6.029,0.017,-0.001,-0.009,102.0,102.0,103.0,13.4,1505.2,350.3,-0.8,1.8,2471.697,13.29,0.017,93.4
2023-11-16T09:10:03,42.805,6.029,0.013,0.015,-0.014,103.0,103.0,102.0,13.3,1505.2,335.7,-0.8,1.8,2471.73,13.29,0.019,40.9
2023-11-16T09:13:03,42.805,6.029,0.011,-0.005,-0.05,102.0,102.0,101.0,13.3,1505.2,353.0,-0.8,1.8,2471.688,13.29,0.012,114.4
2023-11-16T09:16:03,42.805,6.029,0.023,0.016,-0.004,102.0,103.0,102.0,13.3,1505.2,339.5,-0.7,1.8,2471.704,13.29,0.028,55.2
2023-11-16T09:19:03,42.805,6.029,0.024,0.015,0.001,103.0,102.0,102.0,13.4,1505.2,349.0,-0.7,1.8,2471.681,13.29,0.028,58.0
2023-11-16T09:22:03,42.805,6.029,0.0,0.021,-0.04,101.0,103.0,102.0,13.4,1505.2,342.0,-0.8,1.8,2471.671,13.3,0.021,0.0
2023-11-16T09:25:03,42.805,6.029,-0.001,0.02,-0.058,105.0,103.0,103.0,13.4,1505.2,350.1,-0.7,1.8,2471.649,13.3,0.02,357.1
2023-11-16T09:28:03,42.805,6.029,0.0,0.011,-0.057,101.0,103.0,101.0,13.3,1505.2,353.3,-0.8,1.8,2471.695,13.3,0.011,0.0
2023-11-16T09:31:03,42.805,6.029,0.025,0.019,-0.006,102.0,101.0,101.0,13.4,1505.2,333.8,-0.7,1.8,2471.706,13.3,0.031,52.8
2023-11-16T09:34:03,42.805,6.029,-0.014,0.013,-0.059,102.0,103.0,101.0,13.4,1505.2,344.5,-0.8,1.8,2471.672,13.3,0.019,312.9
2023-11-16T09:37:03,42.805,6.029,0.03,-0.004,-0.047,103.0,102.0,102.0,13.4,1505.2,336.5,-0.7,1.8,2471.683,13.3,0.03,97.6
2023-11-16T09:40:03,42.805,6.029,-0.003,0.0,-0.017,104.0,104.0,101.0,13.3,1505.2,347.3,-0.7,1.8,2471.681,13.3,0.003,270.0
2023-11-16T09:43:03,42.805,6.029,0.026,0.007,-0.042,103.0,101.0,102.0,13.4,1505.2,339.2,-0.8,1.8,2471.649,13.3,0.026,74.9
2023-11-16T09:46:03,42.805,6.029,0.017,0.016,-0.013,101.0,103.0,103.0,13.4,1505.2,359.1,-0.8,1.8,2471.715,13.3,0.023,46.7
2023-11-16T09:49:03,42.805,6.029,0.027,0.008,0.004,105.0,103.0,101.0,13.4,1505.2,348.5,-0.8,1.8,2471.656,13.3,0.028,73.5
2023-11-16T09:52:03,42.805,6.029,0.013,0.017,-0.04,105.0,103.0,101.0,13.4,1505.2,359.1,-0.7,1.8,2471.637,13.3,0.021,37.4
2023-11-16T09:55:03,42.805,6.029,0.016,-0.003,-0.073,104.0,102.0,102.0,13.3,1505.2,351.4,-0.8,1.8,2471.672,13.3,0.016,100.6
2023-11-16T09:58:03,42.805,6.029,0.024,0.0,-0.021,103.0,103.0,101.0,13.3,1505.2,0.0,-0.8,1.8,2471.673,13.3,0.024,90.0
2023-11-16T10:04:03,42.805,6.029,0.01,0.0,-0.023,104.0,104.0,101.0,13.3,1505.2,348.3,-0.8,1.8,2471.697,13.3,0.01,90.0
2023-11-16T10:07:03,42.805,6.029,0.026,0.005,-0.044,103.0,102.0,101.0,13.4,1505.2,352.6,-0.8,1.8,2471.687,13.3,0.026,79.1